When you browse on this site, cookies collect data to enhance your experience and personalize the content and advertising you see.
Visit our Privacy Policy to learn more. By continuing to use the site, you agree to this use of cookies and data.
  • In Hungary
  • List of Countries
  • For 7 days
  • Water Temperature
  • Satellite Maps
  • Weather Map
  • News
  • Weather Widgets
  • user-avatar
    Login

    Hourly Weather Lewis

    Today, 21 January, Monday

    Time Temperature Precipitation Wind Pressure Humidity
    00:00 +4°C° 0 mm 8 mps 755 mmHg 75%
    01:00 +4°C° 0.1 mm 8 mps 754 mmHg 76%
    02:00 +3°C° 0.1 mm 9 mps 753 mmHg 77%
    03:00 +3°C° 0.1 mm 9 mps 752 mmHg 77%
    04:00 +3°C° 0.2 mm 10 mps 752 mmHg 77%
    05:00 +3°C° 0.2 mm 11 mps 751 mmHg 77%
    06:00 +4°C° 0.2 mm 11 mps 750 mmHg 76%
    07:00 +4°C° 0.1 mm 12 mps 749 mmHg 76%
    08:00 +4°C° 0.1 mm 13 mps 748 mmHg 76%
    09:00 +4°C° 0.1 mm 13 mps 747 mmHg 75%
    10:00 +4°C° 0.4 mm 14 mps 745 mmHg 76%
    11:00 +4°C° 0.4 mm 14 mps 743 mmHg 77%
    12:00 +2°C° 0.4 mm 15 mps 742 mmHg 78%
    13:00 +2°C° 0.7 mm 15 mps 741 mmHg 79%
    14:00 +2°C° 0.7 mm 16 mps 739 mmHg 79%
    15:00 +2°C° 0.7 mm 16 mps 738 mmHg 79%
    16:00 +1°C° 1.6 mm 14 mps 738 mmHg 77%
    17:00 +2°C° 1.6 mm 11 mps 737 mmHg 75%
    18:00 +1°C° 1.6 mm 9 mps 736 mmHg 73%
    19:00 +1°C° 0.2 mm 8 mps 737 mmHg 69%
    20:00 +2°C° 0.2 mm 7 mps 737 mmHg 65%
    21:00 +2°C° 0.2 mm 6 mps 737 mmHg 61%
    22:00 +2°C° 0.4 mm 7 mps 737 mmHg 63%
    23:00 +1°C° 0.4 mm 8 mps 737 mmHg 64%

    Tomorrow, 22 January, Tuesday

    Time Temperature Precipitation Wind Pressure Humidity
    00:00 0°C° 0.4 mm 9 mps 737 mmHg 66%
    01:00 0°C° 0.1 mm 8 mps 737 mmHg 64%
    02:00 0°C° 0.1 mm 8 mps 737 mmHg 63%
    03:00 -1°C° 0.1 mm 7 mps 737 mmHg 62%
    04:00 -1°C° 0 mm 7 mps 737 mmHg 63%
    05:00 -1°C° 0 mm 6 mps 737 mmHg 64%
    06:00 -1°C° 0 mm 5 mps 737 mmHg 65%
    07:00 0°C° 0.1 mm 5 mps 737 mmHg 64%
    08:00 0°C° 0.1 mm 5 mps 737 mmHg 64%
    09:00 0°C° 0.1 mm 5 mps 737 mmHg 64%
    10:00 0°C° 0.1 mm 5 mps 737 mmHg 62%
    11:00 0°C° 0.1 mm 5 mps 737 mmHg 59%
    12:00 +1°C° 0.1 mm 5 mps 738 mmHg 57%
    13:00 +1°C° 0.1 mm 5 mps 738 mmHg 57%
    14:00 +1°C° 0.1 mm 5 mps 738 mmHg 58%
    15:00 +1°C° 0.1 mm 6 mps 738 mmHg 58%
    16:00 -1°C° 0.1 mm 6 mps 738 mmHg 59%
    17:00 0°C° 0.1 mm 5 mps 738 mmHg 60%
    18:00 0°C° 0.1 mm 5 mps 738 mmHg 60%
    19:00 0°C° 0 mm 5 mps 739 mmHg 61%
    20:00 -1°C° 0 mm 6 mps 739 mmHg 61%
    21:00 -1°C° 0 mm 6 mps 739 mmHg 62%
    22:00 -1°C° 0.1 mm 6 mps 739 mmHg 63%
    23:00 -1°C° 0.1 mm 6 mps 740 mmHg 65%

    Day after tomorrow, 23 January, Wednesday

    Time Temperature Precipitation Wind Pressure Humidity
    00:00 +1°C° 0.1 mm 6 mps 740 mmHg 66%
    01:00 +1°C° 0 mm 6 mps 740 mmHg 66%
    02:00 -1°C° 0 mm 6 mps 740 mmHg 67%
    03:00 -1°C° 0 mm 6 mps 741 mmHg 67%
    04:00 -1°C° 0 mm 6 mps 741 mmHg 67%
    05:00 -1°C° 0 mm 6 mps 741 mmHg 67%
    06:00 -1°C° 0 mm 6 mps 741 mmHg 68%
    07:00 0°C° 0 mm 5 mps 742 mmHg 68%
    08:00 0°C° 0 mm 5 mps 742 mmHg 68%
    09:00 0°C° 0 mm 5 mps 743 mmHg 69%
    10:00 +1°C° 0.1 mm 5 mps 743 mmHg 67%
    11:00 +2°C° 0.1 mm 5 mps 744 mmHg 66%
    12:00 +2°C° 0.1 mm 5 mps 744 mmHg 65%
    13:00 +2°C° 0.1 mm 5 mps 744 mmHg 65%
    14:00 +2°C° 0.1 mm 5 mps 744 mmHg 65%
    15:00 +2°C° 0.1 mm 5 mps 745 mmHg 65%
    16:00 +2°C° 0 mm 5 mps 745 mmHg 66%
    17:00 +3°C° 0 mm 4 mps 745 mmHg 68%
    18:00 +3°C° 0 mm 4 mps 745 mmHg 69%
    19:00 +3°C° 0 mm 4 mps 746 mmHg 71%
    20:00 +3°C° 0 mm 3 mps 746 mmHg 72%
    21:00 +3°C° 0 mm 3 mps 746 mmHg 73%
    22:00 +3°C° 0 mm 3 mps 746 mmHg 75%
    23:00 +3°C° 0 mm 3 mps 746 mmHg 77%

    24 January, Thursday

    Time Temperature Precipitation Wind Pressure Humidity
    00:00 +3°C° 0 mm 3 mps 746 mmHg 78%
    01:00 +4°C° 0.1 mm 4 mps 746 mmHg 81%
    02:00 +4°C° 0.1 mm 4 mps 746 mmHg 83%
    03:00 +3°C° 0.1 mm 5 mps 745 mmHg 86%
    04:00 +3°C° 0.7 mm 5 mps 745 mmHg 88%
    05:00 +3°C° 0.7 mm 6 mps 744 mmHg 91%
    06:00 +4°C° 0.7 mm 7 mps 744 mmHg 93%
    07:00 +4°C° 1.1 mm 7 mps 743 mmHg 94%
    08:00 +5°C° 1.1 mm 7 mps 743 mmHg 95%
    09:00 +6°C° 1.1 mm 7 mps 743 mmHg 96%
    10:00 +6°C° 0.5 mm 7 mps 743 mmHg 95%
    11:00 +7°C° 0.5 mm 8 mps 743 mmHg 94%
    12:00 +7°C° 0.5 mm 9 mps 743 mmHg 93%
    13:00 +7°C° 0.1 mm 8 mps 743 mmHg 93%
    14:00 +7°C° 0.1 mm 8 mps 743 mmHg 93%
    15:00 +7°C° 0.1 mm 8 mps 743 mmHg 93%
    16:00 +7°C° 0.1 mm 8 mps 743 mmHg 93%
    17:00 +7°C° 0.1 mm 8 mps 743 mmHg 93%
    18:00 +7°C° 0.1 mm 8 mps 743 mmHg 93%
    19:00 +7°C° 0.2 mm 9 mps 743 mmHg 93%
    20:00 +7°C° 0.2 mm 9 mps 743 mmHg 92%
    21:00 +7°C° 0.2 mm 10 mps 743 mmHg 91%
    22:00 +7°C° 0.1 mm 10 mps 743 mmHg 91%
    23:00 +7°C° 0.1 mm 11 mps 742 mmHg 91%

    25 January, Friday

    Time Temperature Precipitation Wind Pressure Humidity
    00:00 +7°C° 0.1 mm 11 mps 742 mmHg 91%
    01:00 +7°C° 0.4 mm 11 mps 741 mmHg 90%
    02:00 +7°C° 0.4 mm 12 mps 741 mmHg 88%
    03:00 +7°C° 0.4 mm 13 mps 740 mmHg 87%
    04:00 +5°C° 0.3 mm 13 mps 741 mmHg 79%
    05:00 +4°C° 0.3 mm 13 mps 741 mmHg 71%
    06:00 +3°C° 0.3 mm 13 mps 741 mmHg 63%
    07:00 +3°C° 0.1 mm 13 mps 742 mmHg 63%
    08:00 +3°C° 0.1 mm 13 mps 742 mmHg 63%
    09:00 +3°C° 0.1 mm 14 mps 742 mmHg 63%
    10:00 +3°C° 0.1 mm 14 mps 743 mmHg 62%
    11:00 +3°C° 0.1 mm 14 mps 743 mmHg 61%
    12:00 +2°C° 0.1 mm 15 mps 743 mmHg 60%
    13:00 +3°C° 0.1 mm 14 mps 743 mmHg 61%
    14:00 +3°C° 0.1 mm 14 mps 743 mmHg 63%
    15:00 +3°C° 0.1 mm 13 mps 743 mmHg 64%
    16:00 +3°C° 0.1 mm 12 mps 743 mmHg 65%
    17:00 +3°C° 0.1 mm 11 mps 744 mmHg 67%
    18:00 +3°C° 0.1 mm 10 mps 744 mmHg 68%
    19:00 +2°C° 0.1 mm 9 mps 744 mmHg 69%
    20:00 +2°C° 0.1 mm 8 mps 744 mmHg 71%
    21:00 +3°C° 0.1 mm 6 mps 744 mmHg 72%
    22:00 +3°C° 0.1 mm 6 mps 744 mmHg 72%
    23:00 +3°C° 0.1 mm 5 mps 744 mmHg 72%

    26 January, Saturday

    Time Temperature Precipitation Wind Pressure Humidity
    00:00 +3°C° 0.1 mm 5 mps 744 mmHg 72%
    01:00 +2°C° 0 mm 5 mps 743 mmHg 71%
    02:00 +2°C° 0 mm 5 mps 743 mmHg 70%
    03:00 +2°C° 0 mm 5 mps 743 mmHg 70%
    04:00 +2°C° 0 mm 5 mps 742 mmHg 69%
    05:00 +2°C° 0 mm 6 mps 742 mmHg 68%
    06:00 +2°C° 0 mm 7 mps 741 mmHg 67%
    07:00 0°C° 0 mm 7 mps 742 mmHg 67%
    08:00 0°C° 0 mm 7 mps 742 mmHg 67%
    09:00 0°C° 0 mm 7 mps 742 mmHg 67%
    10:00 0°C° 0 mm 8 mps 742 mmHg 66%
    11:00 0°C° 0 mm 8 mps 742 mmHg 65%
    12:00 0°C° 0 mm 8 mps 742 mmHg 64%
    13:00 0°C° 0.1 mm 9 mps 742 mmHg 64%
    14:00 0°C° 0.1 mm 9 mps 742 mmHg 65%
    15:00 0°C° 0.1 mm 9 mps 742 mmHg 66%
    16:00 0°C° 0.2 mm 9 mps 742 mmHg 67%
    17:00 0°C° 0.2 mm 9 mps 742 mmHg 68%
    18:00 0°C° 0.2 mm 10 mps 742 mmHg 70%
    19:00 0°C° 0.2 mm 10 mps 743 mmHg 68%
    20:00 0°C° 0.2 mm 10 mps 743 mmHg 67%
    21:00 -2°C° 0.2 mm 10 mps 744 mmHg 66%
    22:00 -1°C° 0.1 mm 9 mps 744 mmHg 64%
    23:00 -1°C° 0.1 mm 9 mps 744 mmHg 63%
    Show more